This demonstration page uses our WeatherBlox Daily Observations layout. Learn more.

Left ArrowRight Arrow

Hourly Observations for October 27, 2015

Temp ( °F °C ) Dew Point ( °F °C ) Humidity (%) Winds ( mph kmh ) Pressure ( in mb ) Visibility ( mi km ) Precip ( " mm )
12:53 am 00:53 Clear 60 15.6 40 4.4 47 47 Calm 29.96 1014 10 16 0.00 0.00
1:53 am 01:53 Clear 58 14.4 41 5 53 53 NW 3 6 29.96 1015 10 16 0.00 0.00
2:53 am 02:53 Clear 60 15.6 41 5 50 50 undefined N/A 29.96 1015 10 16 0.00 0.00
3:53 am 03:53 Clear 58 14.4 42 5.6 56 56 Calm 29.96 1015 10 16 0.00 0.00
4:53 am 04:53 Clear 57 13.9 43 6.1 60 60 Calm 29.95 1014 10 16 0.00 0.00
5:53 am 05:53 Clear 56 13.3 44 6.7 65 65 Calm 29.95 1014 10 16 0.00 0.00
6:53 am 06:53 Clear 55 12.8 42 5.6 62 62 Calm 29.96 1015 10 16 0.00 0.00
7:53 am 07:53 Sunny 55 12.8 42 5.6 62 62 Calm 29.98 1015 10 16 0.00 0.00
8:53 am 08:53 Sunny 57 13.9 42 5.6 58 58 N 3 6 29.99 1016 10 16 0.00 0.00
9:53 am 09:53 Sunny 63 17.2 43 6.1 48 48 Calm 30.00 1016 10 16 0.00 0.00
10:53 am 10:53 Sunny 64 17.8 43 6.1 46 46 Calm 30.01 1016 10 16 0.00 0.00
11:53 am 11:53 Mostly Cloudy 67 19.4 43 6.1 42 42 Calm 30.02 1017 10 16 0.00 0.00
12:53 pm 12:53 Cloudy 68 20 41 5 38 38 Calm 30.02 1017 10 16 0.00 0.00
1:53 pm 13:53 Cloudy 68 20 41 5 38 38 SSE 5 7 30.02 1017 10 16 0.00 0.00
2:53 pm 14:53 Cloudy 68 20 44 6.7 42 42 Calm 30.02 1017 10 16 0.00 0.03
3:53 pm 15:53 Cloudy with Light Rain 64 17.8 52 11.1 65 65 W 3 6 30.03 1017 8 13 0.00 0.03
4:53 pm 16:53 Cloudy 63 17.2 53 11.7 70 70 NW 5 7 30.01 1016 10 16 0.01 0.25
5:53 pm 17:53 Cloudy with Light Rain 63 17.2 52 11.1 68 68 N 3 6 30.02 1017 10 16 0.00 0.03
6:53 pm 18:53 Cloudy with Light Rain 61 16.1 54 12.2 78 78 NW 6 9 30.02 1017 10 16 0.01 0.25
7:53 pm 19:53 Cloudy 60 15.6 55 12.8 84 84 N 5 7 30.01 1016 10 16 0.00 0.03
8:53 pm 20:53 Cloudy 61 16.1 53 11.7 75 75 NNW 6 9 29.98 1015 10 16 0.00 0.00
9:53 pm 21:53 Cloudy 60 15.6 53 11.7 78 78 WNW 7 11 29.98 1015 10 16 0.00 0.00
10:53 pm 22:53 Cloudy 62 16.7 53 11.7 73 73 NW 5 7 29.98 1015 10 16 0.00 0.00
11:53 pm 23:53 Cloudy 62 16.7 53 11.7 73 73 WNW 3 6 29.98 1015 10 16 0.00 0.00

Powered by AerisWeather